Location: Bayershof
(50.7500°N, 10.1167°E)
Time: 23:30:33
(UTC+00:00)

Daily predictions for brighter satellites

Satellite Brightness Start Highest point End
(mag) Time Altitude Azimuth Time Altitude Azimuth Time Altitude Azimuth
NOSS 3-4 (A) 3.9 16:54:01 10° NW 17:00:24 59° NE 17:07:57 10° ESE
NOSS 3-4 (C) 3.9 16:54:17 10° NW 17:00:42 59° NE 17:08:14 10° ESE
SL-16 R/B 3.3 16:57:56 10° NNW 17:02:33 25° NE 17:07:07 10° E
Cosmos 2227 Rocket 3.6 17:00:03 10° SE 17:03:28 17° E 17:06:53 10° ENE
Cosmos 1025 Rocket 3.3 17:00:21 10° SSE 17:04:29 47° E 17:08:40 10° NNE
Aureole 3 Rocket 3.2 17:02:35 10° N 17:06:13 33° ENE 17:09:12 10° SE
Thor Agena Rocket 4.3 17:05:55 10° S 17:10:56 59° WSW 17:16:04 10° NNW
Sich 1 Rocket 3.6 17:10:23 10° N 17:14:56 65° ENE 17:19:27 10° SSE
ATLAS 2AS CENTAUR R/B 3.9 17:10:40 10° W 17:16:51 33° NNW 17:22:57 10° NE
GP-B 3.2 17:12:42 10° S 17:17:04 80° W 17:21:28 10° N
SKYMED 2 3.7 17:14:15 10° NNE 17:18:32 52° E 17:22:46 10° S
Cosmos 2123 Rocket 4.4 17:12:19 10° SSW 17:18:37 71° WNW 17:24:56 10° N
Resurs 1-3 3.5 17:16:20 10° SSE 17:20:34 62° ENE 17:24:51 10° N
Lacrosse 5 rocket 1.9 17:21:08 10° W 17:24:25 38° NNW 17:27:49 10° NE
Resurs 01 Rocket 2.2 17:24:08 10° SE 17:28:08 36° ENE 17:32:11 10° N
Cosmos 1782 3.8 17:28:54 10° NNE 17:31:42 21° ENE 17:34:28 10° ESE
SPOT 1/Viking Rocket 4.0 17:29:16 10° S 17:34:21 68° WSW 17:39:29 10° NNW
Cosmos 1674 Rocket 3.9 17:30:04 10° SSW 17:34:27 71° WNW 17:38:54 10° N
USA 267 3.3 17:30:46 10° ENE 17:37:21 88° NNW 17:43:55 10° WSW
CARTOSAT-1 3.5 17:34:31 10° SSE 17:38:37 55° ENE 17:42:45 10° N
Radarsat Rocket 4.0 17:35:57 10° SSE 17:41:51 79° ENE 17:48:19 10° NNW
ARIANE 6 FM1 Upper Stage 3.3 17:39:25 10° NW 17:43:05 35° NNE 17:45:29 18° E
SL-19 R/B 4.4 17:38:09 10° SSE 17:44:12 67° ENE 17:49:59 10° NNW
Cosmos 2297 Rocket 2.2 17:41:37 10° SSW 17:47:15 72° ESE 17:52:55 10° NNE
Cosmos 1447 Rocket 4.4 17:42:28 10° S 17:48:35 81° E 17:54:46 10° NNE
RESURS DK-1 4.2 17:46:40 10° N 17:48:46 14° NE 17:49:28 13° NE
Cosmos 1943 4.5 17:44:48 10° NNW 17:49:18 23° NE 17:51:54 17° ENE
SPOT 5 3.8 17:52:21 15° ESE 17:55:33 29° ENE 17:59:54 10° N
SeaSat 1 3.7 17:52:41 10° S 17:57:20 44° WSW 18:02:03 10° NW
SJ-6B 2.8 17:55:14 10° SE 17:58:30 42° ENE 18:01:47 10° N
IRAS Rocket 4.3 17:53:29 10° SE 17:58:59 59° ENE 18:04:31 10° NNW
Tiangong 0.2 17:57:16 10° SSW 17:59:05 14° S 18:00:16 12° SSE
PSLV R/B 3.5 17:59:15 10° SSE 18:03:22 83° WSW 18:07:29 10° NNW
Cosmos 2228 2.9 17:59:43 10° N 18:03:53 61° ENE 18:08:02 10° SSE
COSMO-SKYMED 1 2.4 18:00:17 10° NNE 18:04:26 88° ESE 18:08:33 10° SSW
Meteor 1-31 Rocket 3.5 18:06:27 26° NE 18:06:27 26° NE 18:09:04 10° N
NOSS 3-3 (C) 4.1 18:01:10 10° SW 18:06:31 68° NW 18:13:03 10° NE
Cosmos 1544 Rocket 4.1 18:02:35 10° N 18:06:36 35° ENE 18:08:59 20° SE
Cosmos 1570 Rocket 3.9 18:02:39 10° SSW 18:07:56 84° ESE 18:13:13 10° NNE
CZ-2D R/B 4.2 18:04:26 10° S 18:08:16 53° W 18:12:14 10° NNW
YAOGAN 3 4.4 18:04:29 10° SSE 18:08:42 89° NE 18:12:56 10° NNW
Cosmos 2344 4.0 18:02:55 10° S 18:09:59 37° ESE 18:14:28 19° ENE
Cosmos 1455 Rocket 3.4 18:07:18 10° NNW 18:11:35 65° W 18:15:50 10° S
YAOGAN 1 3.8 18:08:25 10° S 18:12:29 44° W 18:16:35 10° NNW
CZ-4B R/B 4.3 18:12:54 31° ESE 18:13:55 37° ENE 18:17:30 10° N
Cosmos 2263 Rocket 2.8 18:08:59 10° SSE 18:14:00 34° ESE 18:16:41 22° ENE
Cosmos 1975 Rocket 2.9 18:10:47 10° S 18:15:05 63° E 18:19:21 10° NNE
Cosmos 2034 Rocket 4.0 18:09:24 10° N 18:15:27 53° ENE 18:21:30 10° SSE
DMSP B5D1-3 4.4 18:10:30 10° NNE 18:15:37 67° ESE 18:20:41 10° S
Cosmos 1072 Rocket 4.4 18:10:09 10° N 18:16:27 83° E 18:22:36 10° SSE
Cosmos 2237 Rocket 3.4 18:15:07 10° NW 18:20:30 45° WSW 18:25:52 10° S
Cosmos 773 Rocket 4.0 18:19:06 10° SSW 18:24:23 89° ESE 18:29:42 10° NNE
DNEPR-1 R/B 4.2 18:20:16 10° NW 18:25:06 71° SW 18:30:44 11° SSE
Terra 3.2 18:31:23 22° NE 18:31:23 22° NE 18:33:59 10° N
Cosmos 2208 Rocket 4.0 18:25:04 10° SSW 18:30:20 88° WNW 18:35:43 10° NNE
Cosmos 972 Rocket 4.4 18:25:57 10° N 18:30:39 40° ENE 18:31:38 37° E
Meteor 2-17 Rocket 4.5 18:30:30 10° SSW 18:36:34 81° W 18:42:39 10° N
Cosmos 1346 Rocket 2.4 18:35:30 10° S 18:39:07 81° ESE 18:40:09 45° NNE
Cosmos 44 Rocket 3.4 18:34:40 10° SW 18:39:37 81° NW 18:42:35 26° NE
TSX-5 4.1 18:35:45 10° NNW 18:41:02 74° NE 18:42:13 49° SE
Cosmos 1464 Rocket 4.2 18:36:09 10° NNW 18:42:30 73° W 18:48:45 10° S
Cosmos 1602 4.0 18:40:07 10° SSW 18:42:47 43° WNW 18:43:15 38° NW
Cosmos 2279 Rocket 4.5 18:37:07 10° N 18:42:47 36° ENE 18:43:02 36° ENE
CZ-4C R/B 3.3 18:40:10 10° W 18:44:32 35° NNW 18:48:40 16° NE
Cosmos 2227 Rocket 2.1 18:41:01 10° SSW 18:46:40 88° ESE 18:51:30 15° NNE
SL-16 R/B 2.2 18:41:40 10° NNW 18:47:22 85° WSW 18:50:49 25° SSE
Helios 1A Rocket 4.5 18:49:53 18° SSW 18:49:53 18° SSW 18:50:50 10° SSW
MetOp-B 4.4 18:57:17 46° ENE 18:57:17 46° ENE 19:02:08 10° N
ATLAS CENTAUR R/B 3.4 18:54:46 10° NNW 18:54:54 11° NNW 18:54:54 11° NNW
CZ-4 R/B 2.4 19:02:50 33° N 19:02:50 33° N 19:05:00 10° NNW
Lacrosse 5 rocket 2.6 18:58:41 10° WNW 19:01:16 28° NNW 19:01:16 28° NNW
Resurs 01 Rocket 3.5 19:00:42 10° SSW 19:04:34 30° W 19:08:27 10° NNW
Cosmos 1782 4.2 19:03:15 10° NNW 19:06:31 33° W 19:09:32 11° SSW
BREEZE-M DEB (TANK) 4.3 19:03:18 10° SW 19:07:53 51° SE 19:11:13 38° E
ATLAS 2AS CENTAUR R/B 3.9 19:03:52 10° NW 19:09:40 28° N 19:11:46 24° NE
DMSP 5D-2 F-14 4.5 19:10:52 67° SE 19:11:31 77° ENE 19:16:56 10° NNW
CZ-4B R/B 3.2 19:11:59 60° NE 19:11:59 60° NE 19:16:49 10° N
Gbstr 26 Del rocket 4.4 19:07:04 10° SW 19:13:54 58° SSE 19:15:03 53° ESE
CSL-04 Debris 4.2 19:12:12 30° S 19:14:57 76° WSW 19:20:24 10° NNW
CZ-4B DEB 4.1 19:14:53 52° SSE 19:16:18 87° WSW 19:21:48 10° NNW
ERS-1 Rocket 3.4 19:20:01 49° NNE 19:20:01 49° NNE 19:23:47 10° N
USA 267 3.7 19:17:49 37° NE 19:20:08 55° N 19:26:29 10° W
CSL-04 Rocket 3.9 19:17:14 26° S 19:20:10 64° WSW 19:25:26 10° NNW
ARIANE 6 FM1 Upper Stage 3.7 19:18:24 10° NW 19:21:31 41° W 19:21:31 41° W
RESURS DK-1 4.1 19:22:56 10° NNW 19:24:45 25° NNW 19:24:45 25° NNW
Cosmos 2297 Rocket 4.0 19:27:00 10° W 19:31:49 28° NW 19:36:40 10° NNE
SPOT 5 3.7 19:31:23 33° SSW 19:33:13 49° W 19:38:12 10° NNW
Cosmos 1943 3.2 19:28:24 10° NNW 19:33:43 77° NNW 19:33:43 77° NNW
Okean O Rocket 4.0 19:39:04 15° N 19:39:04 15° N 19:39:52 10° N
Tsikada Rocket 4.0 19:29:46 10° SSW 19:35:54 78° W 19:42:09 10° N
Gblst 52 Del rocket 4.4 19:30:40 10° WNW 19:37:59 82° SSW 19:38:18 80° SSE
MOS 1 4.3 19:38:45 80° WSW 19:38:46 80° WSW 19:44:29 10° NNW
Cosmos 2219 4.1 19:42:01 10° SSW 19:45:34 40° SW 19:45:34 40° SW
ADEOS 4.2 19:53:49 52° NW 19:53:49 52° NW 19:58:02 10° NNW
Cosmos 2263 Rocket 2.9 19:52:13 10° SW 19:57:44 51° NW 19:58:28 48° NNW
Terra 3.7 20:10:00 25° NNW 20:10:00 25° NNW 20:12:05 10° NNW
Cosmos 2344 3.7 20:16:32 10° WSW 20:23:56 61° NW 20:24:32 59° NNW
Cosmos 2227 Rocket 4.2 20:26:55 10° W 20:31:27 24° NW 20:33:22 20° N
CZ-4C R/B 4.1 20:29:55 10° NW 20:33:37 24° N 20:33:37 24° N
ATLAS 2AS CENTAUR R/B 4.1 20:55:30 10° NW 20:59:11 31° NNW 20:59:11 31° NNW
USA 267 4.5 21:05:09 37° NW 21:05:09 37° NW 21:09:02 10° WNW
